Time,TemperatureF,DewpointF,PressureIn,WindDirection,WindDirectionDegrees,WindSpeedMPH,WindSpeedGustMPH,Humidity,HourlyPrecipIn,Conditions,Clouds,dailyrainin,SoftwareType,DateUTC
2013-04-07 00:00:00,46.4,41.2,30.26,ENE,61,7.0,11.0,82,0.00,,---,0.00,VWS V14.01,2013-04-07 04:00:00,
2013-04-07 00:05:00,46.2,41.0,30.26,ENE,62,8.0,11.0,82,0.00,,---,0.00,VWS V14.01,2013-04-07 04:05:00,
2013-04-07 00:10:00,46.0,41.1,30.26,ENE,57,7.0,10.0,83,0.00,,---,0.00,VWS V14.01,2013-04-07 04:10:00,
2013-04-07 00:15:00,45.9,41.0,30.26,ENE,74,5.0,10.0,83,0.00,,---,0.00,VWS V14.01,2013-04-07 04:15:00,
2013-04-07 00:20:00,45.8,40.9,30.26,NE,40,8.0,10.0,83,0.00,,---,0.00,VWS V14.01,2013-04-07 04:20:00,
2013-04-07 00:25:00,45.7,41.2,30.25,ENE,69,8.0,10.0,84,0.00,,---,0.00,VWS V14.01,2013-04-07 04:25:00,
2013-04-07 00:30:00,45.6,41.0,30.25,NE,36,6.0,11.0,84,0.00,,---,0.00,VWS V14.01,2013-04-07 04:30:00,
2013-04-07 00:35:00,45.6,41.0,30.25,NE,54,6.0,11.0,84,0.00,,---,0.00,VWS V14.01,2013-04-07 04:35:00,
2013-04-07 00:40:00,45.6,41.4,30.25,NE,44,9.0,12.0,85,0.00,,---,0.00,VWS V14.01,2013-04-07 04:40:00,
2013-04-07 00:45:00,45.6,41.4,30.25,ENE,59,12.0,12.0,85,0.00,,---,0.00,VWS V14.01,2013-04-07 04:45:00,
2013-04-07 00:50:00,45.6,41.4,30.25,ENE,67,8.0,10.0,85,0.00,,---,0.00,VWS V14.01,2013-04-07 04:50:00,
2013-04-07 00:55:00,45.6,41.4,30.25,ENE,60,7.0,11.0,85,0.00,,---,0.00,VWS V14.01,2013-04-07 04:55:00,
2013-04-07 01:00:00,45.6,41.4,30.25,NNE,32,5.0,10.0,85,0.00,,---,0.00,VWS V14.01,2013-04-07 05:00:00,
2013-04-07 01:05:00,45.5,41.3,30.25,NE,42,6.0,11.0,85,0.00,,---,0.00,VWS V14.01,2013-04-07 05:05:00,
2013-04-07 01:10:00,45.4,41.5,30.25,NE,49,5.0,11.0,86,0.00,,---,0.00,VWS V14.01,2013-04-07 05:10:00,
2013-04-07 01:15:00,45.3,41.4,30.25,NE,56,8.0,10.0,86,0.00,,---,0.00,VWS V14.01,2013-04-07 05:15:00,
2013-04-07 01:20:00,45.2,41.3,30.24,NNE,33,9.0,10.0,86,0.00,,---,0.00,VWS V14.01,2013-04-07 05:20:00,
2013-04-07 01:25:00,45.3,41.4,30.24,NE,47,7.0,10.0,86,0.00,,---,0.00,VWS V14.01,2013-04-07 05:25:00,
2013-04-07 01:30:00,45.3,41.7,30.24,ENE,58,7.0,9.0,87,0.00,,---,0.00,VWS V14.01,2013-04-07 05:30:00,
2013-04-07 01:35:00,45.3,41.7,30.24,NE,49,6.0,9.0,87,0.00,,---,0.00,VWS V14.01,2013-04-07 05:35:00,
2013-04-07 01:40:00,45.4,41.8,30.23,NE,54,5.0,10.0,87,0.00,,---,0.00,VWS V14.01,2013-04-07 05:40:00,
2013-04-07 01:45:00,45.3,41.7,30.23,NE,38,6.0,10.0,87,0.00,,---,0.00,VWS V14.01,2013-04-07 05:45:00,
2013-04-07 01:50:00,45.4,42.1,30.23,NE,38,4.0,10.0,88,0.00,,---,0.00,VWS V14.01,2013-04-07 05:50:00,
2013-04-07 01:55:00,45.4,42.1,30.23,NE,39,9.0,9.0,88,0.00,,---,0.00,VWS V14.01,2013-04-07 05:55:00,
2013-04-07 02:00:00,45.4,42.1,30.23,NE,47,6.0,9.0,88,0.00,,---,0.00,VWS V14.01,2013-04-07 06:00:00,
2013-04-07 02:05:00,45.4,42.1,30.23,NE,51,6.0,8.0,88,0.00,,---,0.00,VWS V14.01,2013-04-07 06:05:00,
2013-04-07 02:10:00,45.5,42.2,30.22,NE,51,7.0,10.0,88,0.00,,---,0.00,VWS V14.01,2013-04-07 06:10:00,
2013-04-07 02:15:00,45.5,42.5,30.22,NE,46,4.0,10.0,89,0.00,,---,0.00,VWS V14.01,2013-04-07 06:15:00,
2013-04-07 02:20:00,45.5,42.5,30.22,ENE,64,4.0,8.0,89,0.00,,---,0.00,VWS V14.01,2013-04-07 06:20:00,
2013-04-07 02:25:00,45.5,42.5,30.22,ENE,59,9.0,9.0,89,0.00,,---,0.00,VWS V14.01,2013-04-07 06:25:00,
2013-04-07 02:30:00,45.5,42.5,30.22,NE,55,6.0,10.0,89,0.00,,---,0.00,VWS V14.01,2013-04-07 06:30:00,
2013-04-07 02:35:00,45.6,42.5,30.22,ENE,59,9.0,9.0,89,0.00,,---,0.00,VWS V14.01,2013-04-07 06:35:00,
2013-04-07 02:40:00,45.6,42.5,30.21,ENE,63,10.0,10.0,89,0.00,,---,0.00,VWS V14.01,2013-04-07 06:40:00,
2013-04-07 02:45:00,45.5,42.7,30.21,NE,45,9.0,10.0,90,0.00,,---,0.00,VWS V14.01,2013-04-07 06:45:00,
2013-04-07 02:50:00,45.5,42.7,30.21,NE,34,10.0,10.0,90,0.00,,---,0.00,VWS V14.01,2013-04-07 06:50:00,
2013-04-07 02:55:00,45.5,42.7,30.21,NE,36,8.0,9.0,90,0.00,,---,0.00,VWS V14.01,2013-04-07 06:55:00,
2013-04-07 03:00:00,45.6,42.8,30.21,ENE,58,9.0,10.0,90,0.00,,---,0.00,VWS V14.01,2013-04-07 07:00:00,
2013-04-07 03:05:00,45.6,42.8,30.21,NE,42,7.0,9.0,90,0.00,,---,0.00,VWS V14.01,2013-04-07 07:05:00,
2013-04-07 03:10:00,45.6,42.8,30.21,ENE,57,5.0,11.0,90,0.00,,---,0.00,VWS V14.01,2013-04-07 07:10:00,
2013-04-07 03:15:00,45.6,42.8,30.21,ENE,72,7.0,10.0,90,0.00,,---,0.00,VWS V14.01,2013-04-07 07:15:00,
2013-04-07 03:20:00,45.7,42.9,30.21,ENE,63,5.0,9.0,90,0.00,,---,0.00,VWS V14.01,2013-04-07 07:20:00,
2013-04-07 03:25:00,45.8,43.3,30.21,ENE,67,8.0,10.0,91,0.00,,---,0.00,VWS V14.01,2013-04-07 07:25:00,
2013-04-07 03:30:00,45.8,43.3,30.21,ENE,72,9.0,11.0,91,0.00,,---,0.00,VWS V14.01,2013-04-07 07:30:00,
2013-04-07 03:35:00,45.9,43.4,30.21,ENE,62,7.0,9.0,91,0.00,,---,0.00,VWS V14.01,2013-04-07 07:35:00,
2013-04-07 03:40:00,46.0,43.5,30.21,NE,42,7.0,11.0,91,0.00,,---,0.00,VWS V14.01,2013-04-07 07:40:00,
2013-04-07 03:45:00,46.0,43.5,30.21,ENE,61,4.0,9.0,91,0.00,,---,0.00,VWS V14.01,2013-04-07 07:45:00,
2013-04-07 03:50:00,46.0,43.5,30.21,ENE,75,8.0,10.0,91,0.00,,---,0.00,VWS V14.01,2013-04-07 07:50:00,
2013-04-07 03:55:00,46.0,43.5,30.20,ENE,72,9.0,9.0,91,0.00,,---,0.00,VWS V14.01,2013-04-07 07:55:00,
2013-04-07 04:00:00,46.0,43.5,30.20,East,80,6.0,9.0,91,0.00,,---,0.00,VWS V14.01,2013-04-07 08:00:00,
2013-04-07 04:05:00,46.1,43.6,30.20,ENE,62,8.0,9.0,91,0.00,,---,0.00,VWS V14.01,2013-04-07 08:05:00,
2013-04-07 04:10:00,46.3,43.8,30.20,ENE,76,9.0,10.0,91,0.00,,---,0.00,VWS V14.01,2013-04-07 08:10:00,
2013-04-07 04:15:00,46.4,43.9,30.20,ENE,74,5.0,10.0,91,0.00,,---,0.00,VWS V14.01,2013-04-07 08:15:00,
2013-04-07 04:20:00,46.5,44.0,30.20,ENE,68,5.0,9.0,91,0.00,,---,0.00,VWS V14.01,2013-04-07 08:20:00,
2013-04-07 04:25:00,46.6,44.1,30.20,ENE,76,7.0,9.0,91,0.00,,---,0.00,VWS V14.01,2013-04-07 08:25:00,
2013-04-07 04:30:00,46.8,44.3,30.20,ENE,65,7.0,10.0,91,0.00,,---,0.00,VWS V14.01,2013-04-07 08:30:00,
2013-04-07 04:35:00,46.9,44.7,30.20,East,82,8.0,9.0,92,0.00,,---,0.00,VWS V14.01,2013-04-07 08:35:00,
2013-04-07 04:40:00,47.1,44.9,30.20,East,90,6.0,10.0,92,0.00,,---,0.00,VWS V14.01,2013-04-07 08:40:00,
2013-04-07 04:45:00,47.1,44.6,30.21,ENE,77,7.0,8.0,91,0.00,,---,0.00,VWS V14.01,2013-04-07 08:45:00,
2013-04-07 04:50:00,47.2,44.7,30.20,ENE,78,3.0,8.0,91,0.00,,---,0.00,VWS V14.01,2013-04-07 08:50:00,
2013-04-07 04:55:00,47.0,44.5,30.21,ENE,63,5.0,7.0,91,0.00,,---,0.00,VWS V14.01,2013-04-07 08:55:00,
2013-04-07 05:00:00,46.8,44.3,30.20,NE,55,5.0,5.0,91,0.00,,---,0.00,VWS V14.01,2013-04-07 09:00:00,
2013-04-07 05:05:00,46.6,44.1,30.20,ENE,57,3.0,5.0,91,0.00,,---,0.00,VWS V14.01,2013-04-07 09:05:00,
2013-04-07 05:11:00,46.5,44.0,30.20,NE,48,3.0,5.0,91,0.00,,---,0.00,VWS V14.01,2013-04-07 09:11:00,
2013-04-07 05:16:00,46.3,43.8,30.20,NE,55,3.0,7.0,91,0.00,,---,0.00,VWS V14.01,2013-04-07 09:16:00,
2013-04-07 05:21:00,46.1,43.6,30.20,NE,51,3.0,7.0,91,0.00,,---,0.00,VWS V14.01,2013-04-07 09:21:00,
2013-04-07 05:26:00,45.9,43.7,30.20,NNE,22,3.0,5.0,92,0.00,,---,0.00,VWS V14.01,2013-04-07 09:26:00,
2013-04-07 05:31:00,45.8,43.6,30.20,ENE,69,4.0,8.0,92,0.00,,---,0.00,VWS V14.01,2013-04-07 09:31:00,
2013-04-07 05:36:00,45.7,43.5,30.21,NE,51,5.0,6.0,92,0.00,,---,0.00,VWS V14.01,2013-04-07 09:36:00,
2013-04-07 05:41:00,45.5,43.3,30.21,NE,51,4.0,5.0,92,0.00,,---,0.00,VWS V14.01,2013-04-07 09:41:00,
2013-04-07 05:46:00,45.4,43.2,30.21,NE,56,3.0,7.0,92,0.00,,---,0.00,VWS V14.01,2013-04-07 09:46:00,
2013-04-07 05:51:00,45.5,43.3,30.21,NE,49,5.0,7.0,92,0.00,,---,0.00,VWS V14.01,2013-04-07 09:51:00,
2013-04-07 05:56:00,45.4,43.2,30.22,NE,37,3.0,7.0,92,0.00,,---,0.00,VWS V14.01,2013-04-07 09:56:00,
2013-04-07 06:01:00,45.3,43.1,30.22,NE,48,6.0,7.0,92,0.00,,---,0.00,VWS V14.01,2013-04-07 10:01:00,
2013-04-07 06:06:00,45.2,43.0,30.22,NE,51,3.0,7.0,92,0.00,,---,0.00,VWS V14.01,2013-04-07 10:06:00,
2013-04-07 06:11:00,45.0,42.8,30.22,NE,53,4.0,7.0,92,0.00,,---,0.00,VWS V14.01,2013-04-07 10:11:00,
2013-04-07 06:16:00,44.9,42.7,30.22,NE,54,5.0,5.0,92,0.00,,---,0.00,VWS V14.01,2013-04-07 10:16:00,
2013-04-07 06:21:00,44.9,43.0,30.22,NE,44,5.0,5.0,93,0.00,,---,0.00,VWS V14.01,2013-04-07 10:21:00,
2013-04-07 06:26:00,44.9,43.0,30.22,NE,56,4.0,7.0,93,0.00,,---,0.00,VWS V14.01,2013-04-07 10:26:00,
2013-04-07 06:31:00,45.0,43.1,30.23,NE,36,4.0,6.0,93,0.00,,---,0.00,VWS V14.01,2013-04-07 10:31:00,
2013-04-07 06:36:00,45.0,43.1,30.23,ENE,57,3.0,7.0,93,0.00,,---,0.00,VWS V14.01,2013-04-07 10:36:00,
2013-04-07 06:41:00,45.1,43.2,30.23,NE,40,6.0,10.0,93,0.00,,---,0.00,VWS V14.01,2013-04-07 10:41:00,
2013-04-07 06:47:00,45.0,43.1,30.23,NNE,32,5.0,9.0,93,0.00,,---,0.00,VWS V14.01,2013-04-07 10:47:00,
2013-04-07 06:52:00,45.0,43.1,30.23,NE,40,6.0,8.0,93,0.00,,---,0.00,VWS V14.01,2013-04-07 10:52:00,
2013-04-07 06:57:00,45.0,43.1,30.23,NE,39,8.0,9.0,93,0.00,,---,0.00,VWS V14.01,2013-04-07 10:57:00,
2013-04-07 07:02:00,45.0,43.1,30.23,NNE,23,7.0,9.0,93,0.00,,---,0.00,VWS V14.01,2013-04-07 11:02:00,
2013-04-07 07:07:00,45.1,43.2,30.23,NNE,23,10.0,10.0,93,0.00,,---,0.00,VWS V14.01,2013-04-07 11:07:00,
2013-04-07 07:12:00,45.2,43.3,30.23,NE,42,7.0,10.0,93,0.00,,---,0.00,VWS V14.01,2013-04-07 11:12:00,
2013-04-07 07:17:00,45.4,43.5,30.24,ENE,63,5.0,9.0,93,0.00,,---,0.00,VWS V14.01,2013-04-07 11:17:00,
2013-04-07 07:22:00,45.7,43.8,30.24,ENE,61,8.0,9.0,93,0.00,,---,0.00,VWS V14.01,2013-04-07 11:22:00,
2013-04-07 07:27:00,46.0,44.1,30.24,ENE,62,8.0,9.0,93,0.00,,---,0.00,VWS V14.01,2013-04-07 11:27:00,
2013-04-07 07:32:00,46.4,44.8,30.24,ENE,65,5.0,9.0,94,0.00,,---,0.00,VWS V14.01,2013-04-07 11:32:00,
2013-04-07 07:37:00,46.8,44.9,30.24,ENE,67,8.0,10.0,93,0.00,,---,0.00,VWS V14.01,2013-04-07 11:37:00,
2013-04-07 07:42:00,47.1,45.2,30.24,NE,51,4.0,9.0,93,0.00,,---,0.00,VWS V14.01,2013-04-07 11:42:00,
2013-04-07 07:47:00,47.5,45.6,30.24,ENE,78,4.0,8.0,93,0.00,,---,0.00,VWS V14.01,2013-04-07 11:47:00,
2013-04-07 07:52:00,47.9,46.0,30.24,ENE,59,7.0,12.0,93,0.00,,---,0.00,VWS V14.01,2013-04-07 11:52:00,
2013-04-07 07:57:00,48.2,46.3,30.24,ENE,57,5.0,10.0,93,0.00,,---,0.00,VWS V14.01,2013-04-07 11:57:00,
2013-04-07 08:02:00,48.5,46.6,30.24,NE,42,9.0,9.0,93,0.00,,---,0.00,VWS V14.01,2013-04-07 12:02:00,
2013-04-07 08:07:00,48.8,46.6,30.24,ENE,63,7.0,8.0,92,0.00,,---,0.00,VWS V14.01,2013-04-07 12:07:00,
2013-04-07 08:12:00,49.2,47.0,30.24,ENE,72,5.0,8.0,92,0.00,,---,0.00,VWS V14.01,2013-04-07 12:12:00,
2013-04-07 08:17:00,49.6,47.4,30.24,East,89,8.0,8.0,92,0.00,,---,0.00,VWS V14.01,2013-04-07 12:17:00,
2013-04-07 08:22:00,50.0,47.5,30.24,ENE,77,7.0,8.0,91,0.00,,---,0.00,VWS V14.01,2013-04-07 12:22:00,
2013-04-07 08:27:00,50.4,47.9,30.24,East,86,6.0,6.0,91,0.00,,---,0.00,VWS V14.01,2013-04-07 12:27:00,
2013-04-07 08:32:00,50.8,48.0,30.24,East,89,7.0,10.0,90,0.00,,---,0.00,VWS V14.01,2013-04-07 12:32:00,
2013-04-07 08:37:00,51.4,48.6,30.24,East,90,6.0,7.0,90,0.00,,---,0.00,VWS V14.01,2013-04-07 12:37:00,
2013-04-07 08:42:00,52.0,48.9,30.24,East,99,7.0,7.0,89,0.00,,---,0.00,VWS V14.01,2013-04-07 12:42:00,
2013-04-07 08:47:00,52.3,48.9,30.24,East,100,7.0,9.0,88,0.00,,---,0.00,VWS V14.01,2013-04-07 12:47:00,
2013-04-07 08:52:00,52.4,48.7,30.24,ESE,104,8.0,9.0,87,0.00,,---,0.00,VWS V14.01,2013-04-07 12:52:00,
2013-04-07 08:57:00,52.8,49.0,30.24,East,101,7.0,9.0,87,0.00,,---,0.00,VWS V14.01,2013-04-07 12:57:00,
2013-04-07 09:02:00,53.5,49.7,30.24,East,94,7.0,9.0,87,0.00,,---,0.00,VWS V14.01,2013-04-07 13:02:00,
2013-04-07 09:07:00,53.9,49.2,30.25,East,92,9.0,9.0,84,0.00,,---,0.00,VWS V14.01,2013-04-07 13:07:00,
2013-04-07 09:12:00,54.0,49.3,30.25,East,101,8.0,8.0,84,0.00,,---,0.00,VWS V14.01,2013-04-07 13:12:00,
2013-04-07 09:17:00,54.0,49.3,30.25,East,99,9.0,9.0,84,0.00,,---,0.00,VWS V14.01,2013-04-07 13:17:00,
2013-04-07 09:22:00,54.1,49.1,30.25,East,101,8.0,9.0,83,0.00,,---,0.00,VWS V14.01,2013-04-07 13:22:00,
2013-04-07 09:27:00,54.2,49.5,30.25,ESE,109,5.0,8.0,84,0.00,,---,0.00,VWS V14.01,2013-04-07 13:27:00,
2013-04-07 09:32:00,54.3,49.6,30.25,ESE,108,8.0,8.0,84,0.00,,---,0.00,VWS V14.01,2013-04-07 13:32:00,
2013-04-07 09:37:00,54.3,49.6,30.25,ESE,109,8.0,8.0,84,0.00,,---,0.00,VWS V14.01,2013-04-07 13:37:00,
2013-04-07 09:42:00,54.4,49.7,30.25,ESE,109,7.0,8.0,84,0.00,,---,0.00,VWS V14.01,2013-04-07 13:42:00,
2013-04-07 09:47:00,54.4,49.7,30.25,ESE,111,8.0,8.0,84,0.00,,---,0.00,VWS V14.01,2013-04-07 13:47:00,
2013-04-07 09:52:00,54.5,49.8,30.25,ESE,111,8.0,9.0,84,0.00,,---,0.00,VWS V14.01,2013-04-07 13:52:00,
2013-04-07 09:57:00,54.6,49.9,30.25,ESE,115,7.0,7.0,84,0.00,,---,0.00,VWS V14.01,2013-04-07 13:57:00,
2013-04-07 10:02:00,54.7,50.0,30.25,ESE,112,7.0,7.0,84,0.00,,---,0.00,VWS V14.01,2013-04-07 14:02:00,
2013-04-07 10:07:00,54.9,49.8,30.25,ESE,114,7.0,7.0,83,0.00,,---,0.00,VWS V14.01,2013-04-07 14:07:00,
2013-04-07 10:12:00,55.1,50.0,30.25,ESE,120,7.0,7.0,83,0.00,,---,0.00,VWS V14.01,2013-04-07 14:12:00,
2013-04-07 10:17:00,55.3,50.2,30.25,SE,127,5.0,6.0,83,0.00,,---,0.00,VWS V14.01,2013-04-07 14:17:00,
2013-04-07 10:22:00,55.3,50.2,30.26,ESE,123,5.0,5.0,83,0.00,,---,0.00,VWS V14.01,2013-04-07 14:22:00,
2013-04-07 10:27:00,55.4,50.3,30.26,ESE,121,4.0,4.0,83,0.00,,---,0.00,VWS V14.01,2013-04-07 14:27:00,
2013-04-07 10:32:00,55.5,50.4,30.26,SE,126,4.0,4.0,83,0.00,,---,0.00,VWS V14.01,2013-04-07 14:32:00,
2013-04-07 10:37:00,55.6,50.5,30.26,ESE,121,4.0,4.0,83,0.00,,---,0.00,VWS V14.01,2013-04-07 14:37:00,
2013-04-07 10:43:00,55.7,50.6,30.26,ESE,117,4.0,5.0,83,0.00,,---,0.00,VWS V14.01,2013-04-07 14:43:00,
2013-04-07 10:47:00,55.8,50.7,30.26,ESE,116,4.0,4.0,83,0.00,,---,0.00,VWS V14.01,2013-04-07 14:47:00,
2013-04-07 10:52:00,55.9,51.1,30.26,ESE,111,3.0,3.0,84,0.00,,---,0.00,VWS V14.01,2013-04-07 14:52:00,
2013-04-07 10:58:00,55.9,50.8,30.26,ESE,116,5.0,5.0,83,0.00,,---,0.00,VWS V14.01,2013-04-07 14:58:00,
2013-04-07 11:03:00,55.8,50.7,30.26,ESE,117,4.0,5.0,83,0.00,,---,0.00,VWS V14.01,2013-04-07 15:03:00,
2013-04-07 11:08:00,55.8,50.7,30.26,ESE,116,4.0,4.0,83,0.00,,---,0.00,VWS V14.01,2013-04-07 15:08:00,
2013-04-07 11:13:00,55.9,50.8,30.26,ESE,116,2.0,3.0,83,0.00,,---,0.00,VWS V14.01,2013-04-07 15:13:00,
2013-04-07 11:18:00,55.9,51.1,30.26,ESE,121,5.0,5.0,84,0.00,,---,0.00,VWS V14.01,2013-04-07 15:18:00,
2013-04-07 11:23:00,55.9,51.1,30.26,ESE,123,4.0,5.0,84,0.00,,---,0.00,VWS V14.01,2013-04-07 15:23:00,
2013-04-07 11:28:00,55.9,51.1,30.26,ESE,117,4.0,4.0,84,0.00,,---,0.00,VWS V14.01,2013-04-07 15:28:00,
2013-04-07 11:33:00,56.1,51.3,30.26,ESE,117,5.0,5.0,84,0.00,,---,0.00,VWS V14.01,2013-04-07 15:33:00,
2013-04-07 11:38:00,56.1,51.3,30.26,ESE,119,5.0,5.0,84,0.00,,---,0.00,VWS V14.01,2013-04-07 15:38:00,
2013-04-07 11:43:00,56.3,51.5,30.26,ESE,115,5.0,5.0,84,0.00,,---,0.00,VWS V14.01,2013-04-07 15:43:00,
2013-04-07 11:48:00,56.3,51.5,30.26,ESE,114,4.0,4.0,84,0.00,,---,0.00,VWS V14.01,2013-04-07 15:48:00,
2013-04-07 11:53:00,56.4,51.6,30.26,ESE,110,5.0,5.0,84,0.00,,---,0.00,VWS V14.01,2013-04-07 15:53:00,
2013-04-07 11:58:00,56.5,51.7,30.26,ESE,111,4.0,5.0,84,0.00,,---,0.00,VWS V14.01,2013-04-07 15:58:00,
2013-04-07 12:03:00,56.7,51.9,30.25,ESE,111,5.0,5.0,84,0.00,,---,0.00,VWS V14.01,2013-04-07 16:03:00,
2013-04-07 12:08:00,56.8,52.0,30.25,ESE,113,4.0,4.0,84,0.00,,---,0.00,VWS V14.01,2013-04-07 16:08:00,
2013-04-07 12:13:00,56.9,52.1,30.25,ESE,111,4.0,4.0,84,0.00,,---,0.00,VWS V14.01,2013-04-07 16:13:00,
2013-04-07 12:18:00,56.9,52.1,30.25,ESE,111,4.0,4.0,84,0.00,,---,0.00,VWS V14.01,2013-04-07 16:18:00,
2013-04-07 12:23:00,57.0,52.2,30.25,ESE,113,4.0,4.0,84,0.00,,---,0.00,VWS V14.01,2013-04-07 16:23:00,
2013-04-07 12:28:00,57.1,52.0,30.25,ESE,113,4.0,5.0,83,0.00,,---,0.00,VWS V14.01,2013-04-07 16:28:00,
2013-04-07 12:33:00,57.2,52.1,30.25,ESE,112,4.0,5.0,83,0.00,,---,0.00,VWS V14.01,2013-04-07 16:33:00,
2013-04-07 12:38:00,57.2,52.1,30.24,ESE,111,4.0,5.0,83,0.00,,---,0.00,VWS V14.01,2013-04-07 16:38:00,
2013-04-07 12:43:00,57.3,52.2,30.24,ESE,113,4.0,4.0,83,0.00,,---,0.00,VWS V14.01,2013-04-07 16:43:00,
2013-04-07 12:48:00,57.3,52.2,30.24,ESE,115,4.0,4.0,83,0.00,,---,0.00,VWS V14.01,2013-04-07 16:48:00,
2013-04-07 12:53:00,57.4,52.3,30.24,ESE,116,4.0,5.0,83,0.00,,---,0.00,VWS V14.01,2013-04-07 16:53:00,
2013-04-07 12:58:00,57.5,52.4,30.24,ESE,117,4.0,4.0,83,0.00,,---,0.00,VWS V14.01,2013-04-07 16:58:00,
2013-04-07 13:03:00,57.6,52.5,30.23,ESE,117,4.0,4.0,83,0.00,,---,0.00,VWS V14.01,2013-04-07 17:03:00,
2013-04-07 13:08:00,57.6,52.5,30.23,ESE,117,4.0,7.0,83,0.00,,---,0.00,VWS V14.01,2013-04-07 17:08:00,
2013-04-07 13:13:00,57.7,52.6,30.23,ESE,118,4.0,4.0,83,0.00,,---,0.00,VWS V14.01,2013-04-07 17:13:00,
2013-04-07 13:18:00,57.7,52.6,30.23,ESE,119,4.0,5.0,83,0.00,,---,0.00,VWS V14.01,2013-04-07 17:18:00,
2013-04-07 13:23:00,57.8,52.7,30.23,ESE,117,4.0,4.0,83,0.00,,---,0.00,VWS V14.01,2013-04-07 17:23:00,
2013-04-07 13:28:00,57.8,52.7,30.23,ESE,115,4.0,5.0,83,0.00,,---,0.00,VWS V14.01,2013-04-07 17:28:00,
2013-04-07 13:33:00,58.0,52.9,30.23,ESE,113,4.0,4.0,83,0.00,,---,0.00,VWS V14.01,2013-04-07 17:33:00,
2013-04-07 13:38:00,58.0,52.9,30.22,ESE,113,4.0,5.0,83,0.00,,---,0.00,VWS V14.01,2013-04-07 17:38:00,
2013-04-07 13:43:00,58.0,52.9,30.22,ESE,117,3.0,5.0,83,0.00,,---,0.00,VWS V14.01,2013-04-07 17:43:00,
2013-04-07 13:48:00,58.0,52.9,30.22,ESE,120,4.0,5.0,83,0.00,,---,0.00,VWS V14.01,2013-04-07 17:48:00,
2013-04-07 13:53:00,58.0,52.9,30.21,ESE,123,4.0,5.0,83,0.00,,---,0.00,VWS V14.01,2013-04-07 17:53:00,
2013-04-07 13:58:00,58.0,52.9,30.21,SE,124,4.0,5.0,83,0.00,,---,0.00,VWS V14.01,2013-04-07 17:58:00,
2013-04-07 14:03:00,58.1,53.0,30.21,SE,128,5.0,5.0,83,0.00,,---,0.00,VWS V14.01,2013-04-07 18:03:00,
2013-04-07 14:08:00,58.0,52.9,30.21,SE,131,5.0,6.0,83,0.00,,---,0.00,VWS V14.01,2013-04-07 18:08:00,
2013-04-07 14:13:00,58.1,53.3,30.21,SE,134,5.0,5.0,84,0.00,,---,0.00,VWS V14.01,2013-04-07 18:13:00,
2013-04-07 14:18:00,58.1,53.0,30.21,SE,130,4.0,4.0,83,0.00,,---,0.00,VWS V14.01,2013-04-07 18:18:00,
2013-04-07 14:23:00,58.1,53.3,30.20,SE,129,4.0,5.0,84,0.00,,---,0.00,VWS V14.01,2013-04-07 18:23:00,
2013-04-07 14:28:00,58.1,53.0,30.20,SE,130,4.0,5.0,83,0.00,,---,0.00,VWS V14.01,2013-04-07 18:28:00,
2013-04-07 14:33:00,58.2,53.4,30.20,ESE,122,3.0,4.0,84,0.00,,---,0.00,VWS V14.01,2013-04-07 18:33:00,
2013-04-07 14:39:00,58.3,53.5,30.20,ESE,119,3.0,4.0,84,0.00,,---,0.00,VWS V14.01,2013-04-07 18:39:00,
2013-04-07 14:44:00,58.4,53.6,30.20,ESE,117,3.0,3.0,84,0.00,,---,0.00,VWS V14.01,2013-04-07 18:44:00,
2013-04-07 14:49:00,58.4,53.6,30.20,ESE,117,4.0,4.0,84,0.00,,---,0.00,VWS V14.01,2013-04-07 18:49:00,
2013-04-07 14:54:00,58.5,53.7,30.19,ESE,117,2.0,4.0,84,0.00,,---,0.00,VWS V14.01,2013-04-07 18:54:00,
2013-04-07 14:59:00,58.4,53.6,30.19,ESE,123,3.0,4.0,84,0.00,,---,0.00,VWS V14.01,2013-04-07 18:59:00,
2013-04-07 15:04:00,58.3,53.5,30.19,SE,124,3.0,4.0,84,0.00,,---,0.00,VWS V14.01,2013-04-07 19:04:00,
2013-04-07 15:09:00,58.2,53.7,30.19,SE,130,3.0,4.0,85,0.00,,---,0.00,VWS V14.01,2013-04-07 19:09:00,
2013-04-07 15:14:00,58.3,53.8,30.19,SE,130,3.0,4.0,85,0.00,,---,0.00,VWS V14.01,2013-04-07 19:14:00,
2013-04-07 15:19:00,58.3,54.1,30.19,SE,134,2.0,3.0,86,0.00,,---,0.00,VWS V14.01,2013-04-07 19:19:00,
2013-04-07 15:24:00,58.4,54.2,30.18,SE,134,2.0,3.0,86,0.00,,---,0.00,VWS V14.01,2013-04-07 19:24:00,
2013-04-07 15:29:00,58.4,54.2,30.18,SE,135,2.0,4.0,86,0.00,,---,0.00,VWS V14.01,2013-04-07 19:29:00,
2013-04-07 15:34:00,58.4,54.2,30.18,SE,138,3.0,4.0,86,0.00,,---,0.00,VWS V14.01,2013-04-07 19:34:00,
2013-04-07 15:39:00,58.4,54.5,30.18,SE,140,0.0,2.0,87,0.00,,---,0.00,VWS V14.01,2013-04-07 19:39:00,
2013-04-07 15:44:00,58.4,54.5,30.18,SE,141,0.0,0.0,87,0.00,,---,0.00,VWS V14.01,2013-04-07 19:44:00,
2013-04-07 15:49:00,58.6,54.8,30.18,SE,135,0.0,0.0,87,0.00,,---,0.00,VWS V14.01,2013-04-07 19:49:00,
2013-04-07 15:54:00,58.6,54.8,30.18,SE,142,0.0,0.0,87,0.00,,---,0.00,VWS V14.01,2013-04-07 19:54:00,
2013-04-07 15:59:00,58.7,54.8,30.17,SE,141,0.0,0.0,87,0.00,,---,0.00,VWS V14.01,2013-04-07 19:59:00,
2013-04-07 16:04:00,58.7,54.8,30.17,SE,141,0.0,0.0,87,0.00,,---,0.00,VWS V14.01,2013-04-07 20:04:00,
2013-04-07 16:10:00,58.8,55.0,30.17,SE,144,0.0,1.0,87,0.00,,---,0.00,VWS V14.01,2013-04-07 20:10:00,
2013-04-07 16:15:00,58.8,55.0,30.17,SE,146,0.0,1.0,87,0.00,,---,0.00,VWS V14.01,2013-04-07 20:15:00,
2013-04-07 16:20:00,58.8,55.0,30.17,SSE,149,2.0,4.0,87,0.00,,---,0.00,VWS V14.01,2013-04-07 20:20:00,
2013-04-07 16:25:00,58.7,55.2,30.17,SSE,150,2.0,4.0,88,0.00,,---,0.00,VWS V14.01,2013-04-07 20:25:00,
2013-04-07 16:30:00,58.7,55.2,30.17,SSE,148,5.0,5.0,88,0.00,,---,0.00,VWS V14.01,2013-04-07 20:30:00,
2013-04-07 16:35:00,58.7,55.2,30.17,SSE,150,3.0,4.0,88,0.00,,---,0.00,VWS V14.01,2013-04-07 20:35:00,
2013-04-07 16:40:00,58.7,55.2,30.17,SSE,151,2.0,4.0,88,0.00,,---,0.00,VWS V14.01,2013-04-07 20:40:00,
2013-04-07 16:45:00,58.6,55.4,30.17,SE,146,4.0,5.0,89,0.00,,---,0.00,VWS V14.01,2013-04-07 20:45:00,
2013-04-07 16:50:00,58.6,55.4,30.16,SSE,148,4.0,6.0,89,0.00,,---,0.00,VWS V14.01,2013-04-07 20:50:00,
2013-04-07 16:55:00,58.5,55.3,30.16,SSE,153,6.0,6.0,89,0.00,,---,0.00,VWS V14.01,2013-04-07 20:55:00,
2013-04-07 17:00:00,58.5,55.3,30.16,SSE,153,6.0,7.0,89,0.00,,---,0.00,VWS V14.01,2013-04-07 21:00:00,
2013-04-07 17:05:00,58.4,55.5,30.16,SSE,152,6.0,7.0,90,0.00,,---,0.00,VWS V14.01,2013-04-07 21:05:00,
2013-04-07 17:10:00,58.4,55.5,30.16,SSE,155,6.0,7.0,90,0.00,,---,0.00,VWS V14.01,2013-04-07 21:10:00,
2013-04-07 17:15:00,58.3,55.4,30.16,SSE,159,5.0,7.0,90,0.00,,---,0.00,VWS V14.01,2013-04-07 21:15:00,
2013-04-07 17:20:00,58.3,55.4,30.16,SSE,161,5.0,6.0,90,0.00,,---,0.00,VWS V14.01,2013-04-07 21:20:00,
2013-04-07 17:25:00,58.3,55.4,30.15,SSE,162,6.0,7.0,90,0.00,,---,0.00,VWS V14.01,2013-04-07 21:25:00,
2013-04-07 17:30:00,58.2,55.3,30.15,SSE,162,6.0,7.0,90,0.00,,---,0.00,VWS V14.01,2013-04-07 21:30:00,
2013-04-07 17:35:00,58.2,55.3,30.15,SSE,163,7.0,7.0,90,0.00,,---,0.00,VWS V14.01,2013-04-07 21:35:00,
2013-04-07 17:40:00,58.3,55.4,30.15,SSE,166,6.0,7.0,90,0.00,,---,0.00,VWS V14.01,2013-04-07 21:40:00,
2013-04-07 17:45:00,58.3,55.4,30.16,SSE,166,5.0,7.0,90,0.00,,---,0.00,VWS V14.01,2013-04-07 21:45:00,
2013-04-07 17:50:00,58.4,55.5,30.15,SSE,168,6.0,6.0,90,0.00,,---,0.00,VWS V14.01,2013-04-07 21:50:00,
2013-04-07 17:55:00,58.3,55.4,30.15,SSE,167,5.0,7.0,90,0.00,,---,0.00,VWS V14.01,2013-04-07 21:55:00,
2013-04-07 18:00:00,58.3,55.4,30.15,SSE,167,6.0,7.0,90,0.00,,---,0.00,VWS V14.01,2013-04-07 22:00:00,
2013-04-07 18:05:00,58.3,55.4,30.15,SSE,165,4.0,6.0,90,0.00,,---,0.00,VWS V14.01,2013-04-07 22:05:00,
2013-04-07 18:10:00,58.2,55.6,30.15,SSE,166,5.0,5.0,91,0.00,,---,0.00,VWS V14.01,2013-04-07 22:10:00,
2013-04-07 18:15:00,58.1,55.5,30.15,SSE,163,4.0,5.0,91,0.00,,---,0.00,VWS V14.01,2013-04-07 22:15:00,
2013-04-07 18:20:00,58.1,55.5,30.15,SSE,167,3.0,4.0,91,0.00,,---,0.00,VWS V14.01,2013-04-07 22:20:00,
2013-04-07 18:25:00,58.0,55.4,30.15,SSE,167,3.0,4.0,91,0.00,,---,0.00,VWS V14.01,2013-04-07 22:25:00,
2013-04-07 18:30:00,58.0,55.7,30.15,South,171,4.0,5.0,92,0.00,,---,0.00,VWS V14.01,2013-04-07 22:30:00,
2013-04-07 18:35:00,57.9,55.6,30.15,SSE,167,3.0,4.0,92,0.00,,---,0.00,VWS V14.01,2013-04-07 22:35:00,
2013-04-07 18:40:00,57.9,55.6,30.15,South,173,5.0,6.0,92,0.00,,---,0.00,VWS V14.01,2013-04-07 22:40:00,
2013-04-07 18:45:00,58.0,55.7,30.15,South,182,7.0,8.0,92,0.00,,---,0.00,VWS V14.01,2013-04-07 22:45:00,
2013-04-07 18:50:00,58.2,55.9,30.15,South,178,6.0,8.0,92,0.00,,---,0.00,VWS V14.01,2013-04-07 22:50:00,
2013-04-07 18:55:00,58.2,55.6,30.15,South,173,7.0,8.0,91,0.00,,---,0.00,VWS V14.01,2013-04-07 22:55:00,
2013-04-07 19:00:00,58.2,55.6,30.15,South,175,6.0,7.0,91,0.00,,---,0.00,VWS V14.01,2013-04-07 23:00:00,
2013-04-07 19:05:00,58.2,55.6,30.15,South,171,5.0,6.0,91,0.00,,---,0.00,VWS V14.01,2013-04-07 23:05:00,
2013-04-07 19:10:00,58.4,55.8,30.15,SSE,164,5.0,6.0,91,0.00,,---,0.00,VWS V14.01,2013-04-07 23:10:00,
2013-04-07 19:15:00,58.4,55.8,30.15,SSE,165,3.0,5.0,91,0.00,,---,0.00,VWS V14.01,2013-04-07 23:15:00,
2013-04-07 19:20:00,58.3,55.7,30.15,South,170,4.0,5.0,91,0.00,,---,0.00,VWS V14.01,2013-04-07 23:20:00,
2013-04-07 19:25:00,58.2,55.6,30.15,SSE,165,3.0,4.0,91,0.00,,---,0.00,VWS V14.01,2013-04-07 23:25:00,
2013-04-07 19:30:00,58.1,55.5,30.14,South,170,3.0,4.0,91,0.00,,---,0.00,VWS V14.01,2013-04-07 23:30:00,
2013-04-07 19:35:00,58.1,55.5,30.15,South,186,0.0,5.0,91,0.00,,---,0.00,VWS V14.01,2013-04-07 23:35:00,
2013-04-07 19:40:00,58.2,55.6,30.15,South,190,6.0,8.0,91,0.00,,---,0.00,VWS V14.01,2013-04-07 23:40:00,
2013-04-07 19:45:00,58.6,55.4,30.15,South,189,7.0,9.0,89,0.00,,---,0.00,VWS V14.01,2013-04-07 23:45:00,
2013-04-07 19:50:00,58.8,55.6,30.15,South,184,5.0,7.0,89,0.00,,---,0.00,VWS V14.01,2013-04-07 23:50:00,
2013-04-07 19:55:00,58.8,55.3,30.15,South,182,6.0,7.0,88,0.00,,---,0.00,VWS V14.01,2013-04-07 23:55:00,
2013-04-07 20:00:00,58.8,55.3,30.15,South,184,4.0,7.0,88,0.00,,---,0.00,VWS V14.01,2013-04-08 00:00:00,
2013-04-07 20:05:00,58.8,55.3,30.15,SSW,192,4.0,7.0,88,0.00,,---,0.00,VWS V14.01,2013-04-08 00:05:00,
2013-04-07 20:10:00,59.1,55.2,30.15,SSW,194,7.0,7.0,87,0.00,,---,0.00,VWS V14.01,2013-04-08 00:10:00,
2013-04-07 20:15:00,59.3,55.4,30.15,South,187,9.0,9.0,87,0.00,,---,0.00,VWS V14.01,2013-04-08 00:15:00,
2013-04-07 20:20:00,59.5,55.3,30.15,SSW,192,5.0,10.0,86,0.00,,---,0.00,VWS V14.01,2013-04-08 00:20:00,
2013-04-07 20:25:00,59.4,55.2,30.15,South,184,7.0,8.0,86,0.00,,---,0.00,VWS V14.01,2013-04-08 00:25:00,
2013-04-07 20:30:00,59.3,55.1,30.15,South,182,5.0,7.0,86,0.00,,---,0.00,VWS V14.01,2013-04-08 00:30:00,
2013-04-07 20:35:00,59.2,55.3,30.16,South,190,6.0,8.0,87,0.00,,---,0.00,VWS V14.01,2013-04-08 00:35:00,
2013-04-07 20:40:00,59.1,55.2,30.16,South,185,5.0,9.0,87,0.00,,---,0.00,VWS V14.01,2013-04-08 00:40:00,
2013-04-07 20:45:00,59.2,55.3,30.16,South,186,4.0,8.0,87,0.00,,---,0.00,VWS V14.01,2013-04-08 00:45:00,
2013-04-07 20:50:00,59.2,55.7,30.16,South,175,3.0,7.0,88,0.00,,---,0.00,VWS V14.01,2013-04-08 00:50:00,
2013-04-07 20:55:00,59.0,55.5,30.16,South,179,5.0,6.0,88,0.00,,---,0.00,VWS V14.01,2013-04-08 00:55:00,
2013-04-07 21:00:00,58.8,55.3,30.16,South,185,3.0,7.0,88,0.00,,---,0.00,VWS V14.01,2013-04-08 01:00:00,
2013-04-07 21:05:00,58.6,55.1,30.16,South,182,2.0,6.0,88,0.00,,---,0.00,VWS V14.01,2013-04-08 01:05:00,
2013-04-07 21:10:00,58.4,55.2,30.17,South,185,3.0,6.0,89,0.00,,---,0.00,VWS V14.01,2013-04-08 01:10:00,
2013-04-07 21:15:00,58.4,55.2,30.17,SSW,196,5.0,7.0,89,0.00,,---,0.00,VWS V14.01,2013-04-08 01:15:00,
2013-04-07 21:20:00,58.6,55.4,30.17,SSW,195,6.0,8.0,89,0.00,,---,0.00,VWS V14.01,2013-04-08 01:20:00,
2013-04-07 21:25:00,58.6,55.4,30.17,South,190,5.0,7.0,89,0.00,,---,0.00,VWS V14.01,2013-04-08 01:25:00,
2013-04-07 21:30:00,58.5,55.3,30.17,South,183,3.0,7.0,89,0.00,,---,0.00,VWS V14.01,2013-04-08 01:30:00,
2013-04-07 21:35:00,58.5,55.6,30.17,SSW,197,6.0,7.0,90,0.00,,---,0.00,VWS V14.01,2013-04-08 01:35:00,
2013-04-07 21:40:00,58.5,55.6,30.17,SSW,194,5.0,7.0,90,0.00,,---,0.00,VWS V14.01,2013-04-08 01:40:00,
2013-04-07 21:45:00,58.6,55.7,30.17,SSW,202,6.0,7.0,90,0.00,,---,0.00,VWS V14.01,2013-04-08 01:45:00,
2013-04-07 21:50:00,58.6,55.7,30.17,SSW,199,7.0,7.0,90,0.00,,---,0.00,VWS V14.01,2013-04-08 01:50:00,
2013-04-07 21:55:00,58.6,55.7,30.18,SSW,193,7.0,7.0,90,0.00,,---,0.00,VWS V14.01,2013-04-08 01:55:00,
2013-04-07 22:00:00,58.6,55.7,30.18,South,190,6.0,8.0,90,0.00,,---,0.00,VWS V14.01,2013-04-08 02:00:00,
2013-04-07 22:05:00,58.7,55.8,30.18,South,183,4.0,8.0,90,0.00,,---,0.00,VWS V14.01,2013-04-08 02:05:00,
2013-04-07 22:10:00,58.7,55.5,30.18,South,184,6.0,7.0,89,0.00,,---,0.00,VWS V14.01,2013-04-08 02:10:00,
2013-04-07 22:15:00,58.6,55.4,30.18,South,180,6.0,7.0,89,0.00,,---,0.00,VWS V14.01,2013-04-08 02:15:00,
2013-04-07 22:20:00,58.5,55.6,30.17,South,185,5.0,7.0,90,0.00,,---,0.00,VWS V14.01,2013-04-08 02:20:00,
2013-04-07 22:25:00,58.5,55.6,30.17,South,183,9.0,9.0,90,0.00,,---,0.00,VWS V14.01,2013-04-08 02:25:00,
2013-04-07 22:30:00,58.5,55.6,30.17,South,191,7.0,10.0,90,0.00,,---,0.00,VWS V14.01,2013-04-08 02:30:00,
2013-04-07 22:35:00,58.7,55.8,30.17,SSW,197,8.0,11.0,90,0.00,,---,0.00,VWS V14.01,2013-04-08 02:35:00,
2013-04-07 22:40:00,58.9,55.7,30.17,SSW,192,7.0,10.0,89,0.00,,---,0.00,VWS V14.01,2013-04-08 02:40:00,
2013-04-07 22:45:00,58.9,55.7,30.17,SSW,203,7.0,9.0,89,0.00,,---,0.00,VWS V14.01,2013-04-08 02:45:00,
2013-04-07 22:50:00,59.0,55.8,30.17,SSW,201,7.0,10.0,89,0.00,,---,0.00,VWS V14.01,2013-04-08 02:50:00,
2013-04-07 22:56:00,59.0,55.8,30.17,South,190,9.0,10.0,89,0.00,,---,0.00,VWS V14.01,2013-04-08 02:56:00,
2013-04-07 23:01:00,59.0,55.5,30.17,South,184,9.0,10.0,88,0.00,,---,0.00,VWS V14.01,2013-04-08 03:01:00,
2013-04-07 23:06:00,59.1,55.5,30.17,South,184,7.0,10.0,88,0.00,,---,0.00,VWS V14.01,2013-04-08 03:06:00,
2013-04-07 23:11:00,59.0,55.5,30.17,South,190,7.0,9.0,88,0.00,,---,0.00,VWS V14.01,2013-04-08 03:11:00,
2013-04-07 23:16:00,58.9,55.7,30.17,South,182,9.0,9.0,89,0.00,,---,0.00,VWS V14.01,2013-04-08 03:16:00,
2013-04-07 23:21:00,58.8,55.6,30.17,South,186,6.0,9.0,89,0.00,,---,0.00,VWS V14.01,2013-04-08 03:21:00,
2013-04-07 23:26:00,58.7,55.5,30.17,SSW,192,7.0,8.0,89,0.00,,---,0.00,VWS V14.01,2013-04-08 03:26:00,
2013-04-07 23:32:00,58.5,55.3,30.16,South,181,9.0,9.0,89,0.00,,---,0.00,VWS V14.01,2013-04-08 03:32:00,
2013-04-07 23:37:00,58.4,55.2,30.17,SSW,193,6.0,7.0,89,0.00,,---,0.00,VWS V14.01,2013-04-08 03:37:00,
2013-04-07 23:42:00,58.5,55.3,30.16,SSW,199,8.0,10.0,89,0.00,,---,0.00,VWS V14.01,2013-04-08 03:42:00,
2013-04-07 23:47:00,58.6,55.4,30.16,SSW,198,8.0,10.0,89,0.00,,---,0.00,VWS V14.01,2013-04-08 03:47:00,
2013-04-07 23:52:00,58.7,55.5,30.16,SSW,194,7.0,10.0,89,0.00,,---,0.00,VWS V14.01,2013-04-08 03:52:00,
2013-04-07 23:57:00,58.7,55.5,30.16,SSW,198,7.0,10.0,89,0.00,,---,0.00,VWS V14.01,2013-04-08 03:57:00,